KE6BZI Weather Reports


time (UTC)temp
C
wind
direction
speed
KPH
gust
KPH
rain 1hr
cm
rain 24hr
cm
rain mn
cm
humidity
%
barometer
mb
20260507151507 15 292 3.2 6.4 0.00 0.00 0.00 90 1017.0
20260507150005 15 296 0.0 3.2 0.00 0.00 0.00 91 1016.9
20260507144502 15 335 1.6 6.4 0.00 0.00 0.00 91 1016.8
20260507143104 15 331 0.0 0.0 0.00 0.00 0.00 92 1016.7
20260507141602 15 350 0.0 4.8 0.00 0.00 0.00 92 1016.7
20260507140055 15 287 0.0 3.2 0.00 0.00 0.00 93 1016.6
20260507134556 14 324 0.0 3.2 0.00 0.00 0.00 93 1016.5
20260507133137 14 332 0.0 4.8 0.00 0.00 0.00 93 1016.3
20260507131552 14 335 0.0 1.6 0.00 0.00 0.00 93 1016.3
20260507124555 13 5 0.0 0.0 0.00 0.00 0.00 93 1016.2
20260507123052 13 5 0.0 1.6 0.00 0.00 0.00 93 1016.0
20260507121549 13 5 0.0 0.0 0.00 0.00 0.00 93 1016.1
20260507120049 13 5 0.0 0.0 0.00 0.00 0.00 93 1016.0
20260507114600 13 5 0.0 0.0 0.00 0.00 0.00 93 1016.0
20260507113047 13 5 0.0 0.0 0.00 0.00 0.00 92 1016.0
20260507111546 13 5 0.0 0.0 0.00 0.00 0.00 92 1016.1
20260507110045 13 5 0.0 0.0 0.00 0.00 0.00 92 1016.2
20260507104542 13 5 0.0 0.0 0.00 0.00 0.00 92 1016.2
20260507103045 13 5 0.0 3.2 0.00 0.00 0.00 92 1016.3
20260507101543 13 5 0.0 0.0 0.00 0.00 0.00 92 1016.4
20260507100038 13 5 0.0 0.0 0.00 0.00 0.00 92 1016.5
20260507094547 13 5 0.0 0.0 0.00 0.00 0.00 92 1016.5
20260507093036 13 5 0.0 0.0 0.00 0.00 0.00 92 1016.6
20260507091534 13 5 0.0 0.0 0.00 0.00 0.00 92 1016.7
20260507090031 13 5 0.0 0.0 0.00 0.00 0.00 92 1016.8
20260507084531 13 5 0.0 0.0 0.00 0.00 0.00 92 1017.1
20260507083030 13 5 0.0 0.0 0.00 0.00 0.00 91 1017.2
20260507081531 13 5 0.0 0.0 0.00 0.00 0.00 91 1017.3
20260507080025 13 5 0.0 0.0 0.00 0.00 0.00 91 1017.3
20260507074524 14 5 0.0 0.0 0.00 0.00 0.00 91 1017.4
20260507073023 14 5 0.0 0.0 0.00 0.00 0.00 91 1017.3
20260507071524 14 5 0.0 0.0 0.00 0.00 0.00 91 1017.4
20260507070028 14 5 0.0 0.0 0.00 0.00 0.00 91 1017.6
20260507064519 15 5 0.0 0.0 0.00 0.00 0.00 91 1017.6
20260507063020 15 5 0.0 0.0 0.00 0.00 0.00 91 1017.7
20260507061521 15 5 0.0 0.0 0.00 0.00 0.00 91 1017.7
20260507060020 15 5 0.0 3.2 0.00 0.00 0.00 91 1017.7
20260507054516 15 351 1.6 4.8 0.00 0.00 0.00 90 1017.6
20260507053016 15 331 0.0 0.0 0.00 0.00 0.00 90 1017.6
20260507051517 15 325 0.0 3.2 0.00 0.00 0.00 90 1017.6
20260507050025 15 300 0.0 4.8 0.00 0.00 0.00 89 1017.6
20260507044515 15 322 0.0 0.0 0.00 0.00 0.00 89 1017.5
20260507043014 15 322 0.0 1.6 0.00 0.00 0.00 89 1017.5
20260507041513 15 300 0.0 3.2 0.00 0.00 0.00 88 1017.3
20260507040013 15 323 0.0 4.8 0.00 0.00 0.00 88 1017.3
20260507034511 15 298 0.0 4.8 0.00 0.00 0.00 87 1017.3
20260507033013 16 298 3.2 8.0 0.00 0.00 0.00 86 1017.1
20260507031510 16 302 3.2 12.9 0.00 0.00 0.00 86 1016.9
20260507030012 16 302 3.2 8.0 0.00 0.00 0.00 85 1016.9
20260507024510 16 333 3.2 12.9 0.00 0.00 0.00 84 1016.7
20260507023008 16 285 6.4 12.9 0.00 0.00 0.00 83 1016.6
20260507021507 17 304 4.8 14.5 0.00 0.00 0.00 82 1016.6
20260507020009 17 332 4.8 14.5 0.00 0.00 0.00 81 1016.5
20260507014509 17 300 8.0 16.1 0.00 0.00 0.00 79 1016.5
20260507013005 17 322 8.0 16.1 0.00 0.00 0.00 79 1016.5
20260507011516 18 341 8.0 17.7 0.00 0.00 0.00 78 1016.5
20260507010004 18 315 9.7 20.9 0.00 0.00 0.00 76 1016.4
20260507004503 18 275 9.7 17.7 0.00 0.00 0.00 75 1016.4
20260507003003 18 288 9.7 17.7 0.00 0.00 0.00 75 1016.4
20260507001502 18 291 11.3 19.3 0.00 0.00 0.00 74 1016.2
20260507000002 18 274 12.9 19.3 0.00 0.00 0.00 73 1016.1
20260506234607 19 5 9.7 22.5 0.00 0.00 0.00 73 1016.1
20260506233100 19 333 12.9 19.3 0.00 0.00 0.00 72 1016.2
20260506231558 18 283 8.0 19.3 0.00 0.00 0.00 73 1016.2
20260506230103 19 267 11.3 17.7 0.00 0.00 0.00 72 1016.4
20260506224600 19 285 9.7 20.9 0.00 0.00 0.00 71 1016.5
20260506223054 19 280 9.7 19.3 0.00 0.00 0.00 70 1016.6
20260506221552 19 331 6.4 22.5 0.00 0.00 0.00 69 1016.7
20260506220053 20 293 12.9 20.9 0.00 0.00 0.00 68 1016.9
20260506214549 20 315 8.0 20.9 0.00 0.00 0.00 67 1016.9
20260506213047 20 250 11.3 22.5 0.00 0.00 0.00 67 1017.1
20260506211549 20 286 9.7 20.9 0.00 0.00 0.00 68 1017.0
20260506210044 20 290 8.0 22.5 0.00 0.00 0.00 66 1017.2
20260506204544 20 309 11.3 22.5 0.00 0.00 0.00 66 1017.1
20260506203043 20 281 12.9 24.1 0.00 0.00 0.00 63 1017.2
20260506201541 20 312 8.0 19.3 0.00 0.00 0.00 67 1017.3
20260506200041 20 272 11.3 27.4 0.00 0.00 0.00 66 1017.4
20260506194539 20 20 11.3 20.9 0.00 0.00 0.00 64 1017.6
20260506193042 20 292 8.0 17.7 0.00 0.00 0.00 63 1017.8
20260506191537 20 300 8.0 17.7 0.00 0.00 0.00 64 1017.8
20260506190040 20 263 8.0 17.7 0.00 0.00 0.00 63 1017.9
20260506184544 20 303 8.0 19.3 0.00 0.00 0.00 63 1018.1
20260506183033 20 286 4.8 14.5 0.00 0.00 0.00 64 1018.2
20260506181534 20 279 4.8 12.9 0.00 0.00 0.00 63 1018.3
20260506180031 19 313 4.8 14.5 0.00 0.00 0.00 65 1018.3
20260506174529 18 244 6.4 16.1 0.00 0.03 0.00 65 1018.5
20260506173032 18 311 6.4 16.1 0.00 0.03 0.00 67 1018.6
20260506171527 18 286 8.0 16.1 0.00 0.03 0.00 68 1018.7
20260506170022 18 346 3.2 12.9 0.00 0.03 0.00 69 1018.7
20260506164521 18 350 3.2 12.9 0.00 0.08 0.00 68 1018.7
20260506163027 18 281 6.4 14.5 0.00 0.08 0.00 68 1018.7
20260506161519 17 331 3.2 9.7 0.00 0.08 0.00 69 1018.7
20260506160020 17 275 3.2 8.0 0.00 0.08 0.00 69 1018.6
20260506154515 17 321 1.6 6.4 0.00 0.15 0.00 71 1018.6
20260506153012 17 53 1.6 4.8 0.00 0.15 0.00 72 1018.7